"read_dt","SO2 (ppb)","flags","PMT voltage (V)","lamp voltage (V)","lamp intensity (Hz)","internal temp (C)","react chamber temp (C)","sample flow (l/min)","pres (mmHg)","SO2 bkg (ppb)","SO2 coefficient"
2016-10-01 00:00:00,1592E-3,5C000000,-0724,0829,12097,030.7,045.5,0.450,741.7,01.18,0.508
2016-10-01 00:01:00,1512E-3,5C000000,-0724,0829,12329,030.7,045.5,0.450,741.6,01.18,0.508
2016-10-01 00:02:00,1601E-3,5C000000,-0724,0829,12104,030.7,045.6,0.450,741.6,01.18,0.508
2016-10-01 00:03:00,1594E-3,5C000000,-0724,0829,12196,030.7,045.5,0.450,741.6,01.18,0.508
2016-10-01 00:04:00,1686E-3,5C000000,-0724,0828,12205,030.7,045.5,0.450,741.6,01.18,0.508
2016-10-01 00:05:00,1440E-3,5C000000,-0724,0829,12167,030.7,045.5,0.449,741.6,01.18,0.508
2016-10-01 00:06:00,1684E-3,5C000000,-0724,0828,12226,030.7,045.5,0.449,741.6,01.18,0.508
2016-10-01 00:07:00,1556E-3,5C000000,-0724,0828,12367,030.7,045.5,0.450,741.6,01.18,0.508
2016-10-01 00:08:00,1594E-3,5C000000,-0724,0828,12199,030.7,045.5,0.450,741.6,01.18,0.508
2016-10-01 00:09:00,1569E-3,5C000000,-0724,0828,12329,030.7,045.5,0.450,741.6,01.18,0.508
2016-10-01 00:10:00,1512E-3,5C000000,-0724,0828,12126,030.7,045.5,0.450,741.6,01.18,0.508
2016-10-01 00:11:00,1656E-3,5C000000,-0724,0828,12204,030.7,045.5,0.450,741.6,01.18,0.508
2016-10-01 00:12:00,1542E-3,5C000000,-0724,0828,12174,030.7,045.5,0.450,741.6,01.18,0.508
2016-10-01 00:13:00,1639E-3,5C000000,-0724,0827,12091,030.7,045.6,0.450,741.6,01.18,0.508
2016-10-01 00:14:00,1557E-3,5C000000,-0724,0828,12099,030.7,045.5,0.449,741.6,01.18,0.508
2016-10-01 00:15:00,1562E-3,5C000000,-0724,0828,12169,030.7,045.5,0.449,741.6,01.18,0.508
2016-10-01 00:16:00,1576E-3,5C000000,-0724,0828,12263,030.7,045.5,0.450,741.6,01.18,0.508
2016-10-01 00:17:00,1621E-3,5C000000,-0724,0829,12143,030.7,045.5,0.450,741.6,01.18,0.508
2016-10-01 00:18:00,1575E-3,5C000000,-0724,0827,12204,030.7,045.5,0.450,741.6,01.18,0.508
2016-10-01 00:19:00,1451E-3,5C000000,-0724,0828,12234,030.7,045.5,0.450,741.6,01.18,0.508
2016-10-01 00:20:00,1537E-3,5C000000,-0724,0828,12200,030.7,045.6,0.450,741.6,01.18,0.508
2016-10-01 00:21:00,1552E-3,5C000000,-0724,0828,12310,030.7,045.6,0.450,741.6,01.18,0.508
2016-10-01 00:22:00,1662E-3,5C000000,-0724,0828,12280,030.7,045.5,0.450,741.6,01.18,0.508
2016-10-01 00:23:00,1545E-3,5C000000,-0724,0829,12333,030.7,045.5,0.449,741.6,01.18,0.508
2016-10-01 00:24:00,1542E-3,5C000000,-0724,0828,12235,030.7,045.5,0.449,741.6,01.18,0.508
2016-10-01 00:25:00,1459E-3,5C000000,-0724,0828,12317,030.7,045.5,0.450,741.6,01.18,0.508
2016-10-01 00:26:00,1496E-3,5C000000,-0724,0828,12154,030.7,045.5,0.450,741.6,01.18,0.508
2016-10-01 00:27:00,1713E-3,5C000000,-0724,0828,12203,030.7,045.5,0.450,741.6,01.18,0.508
2016-10-01 00:28:00,1613E-3,5C000000,-0724,0829,12222,030.7,045.5,0.450,741.6,01.18,0.508
2016-10-01 00:29:00,1577E-3,5C000000,-0724,0828,12239,030.7,045.5,0.450,741.6,01.18,0.508
2016-10-01 00:30:00,1627E-3,5C000000,-0724,0829,12171,030.7,045.5,0.450,741.6,01.18,0.508
2016-10-01 00:31:00,1509E-3,5C000000,-0724,0829,12238,030.7,045.6,0.450,741.5,01.18,0.508
2016-10-01 00:32:00,1537E-3,5C000000,-0724,0828,12241,030.7,045.5,0.450,741.5,01.18,0.508
2016-10-01 00:33:00,1444E-3,5C000000,-0724,0830,12111,030.8,045.6,0.449,741.5,01.18,0.508
2016-10-01 00:34:00,1498E-3,5C000000,-0724,0828,12115,030.7,045.6,0.449,741.5,01.18,0.508
2016-10-01 00:35:00,1548E-3,5C000000,-0724,0829,12123,030.7,045.6,0.449,741.5,01.18,0.508
2016-10-01 00:36:00,1569E-3,5C000000,-0724,0827,12160,030.7,045.5,0.450,741.5,01.18,0.508
2016-10-01 00:37:00,1562E-3,5C000000,-0724,0828,12170,030.7,045.5,0.450,741.5,01.18,0.508
2016-10-01 00:38:00,1612E-3,5C000000,-0724,0828,12077,030.7,045.5,0.450,741.5,01.18,0.508
2016-10-01 00:39:00,1521E-3,5C000000,-0724,0827,12398,030.7,045.5,0.450,741.5,01.18,0.508
2016-10-01 00:40:00,1670E-3,5C000000,-0724,0828,12219,030.7,045.5,0.450,741.5,01.18,0.508
2016-10-01 00:41:00,1613E-3,5C000000,-0724,0828,12206,030.7,045.5,0.450,741.5,01.18,0.508
2016-10-01 00:42:00,1665E-3,5C000000,-0724,0829,12105,030.7,045.5,0.449,741.5,01.18,0.508
2016-10-01 00:43:00,1737E-3,5C000000,-0724,0827,12138,030.7,045.5,0.449,741.5,01.18,0.508
2016-10-01 00:44:00,1691E-3,5C000000,-0724,0828,12152,030.7,045.5,0.449,741.5,01.18,0.508
2016-10-01 00:45:00,1631E-3,5C000000,-0724,0829,12235,030.7,045.5,0.449,741.5,01.18,0.508
2016-10-01 00:46:00,1734E-3,5C000000,-0724,0828,12200,030.7,045.6,0.449,741.5,01.18,0.508
2016-10-01 00:47:00,1745E-3,5C000000,-0724,0829,12373,030.7,045.6,0.450,741.5,01.18,0.508
2016-10-01 00:48:00,1637E-3,5C000000,-0724,0828,12240,030.7,045.6,0.450,741.4,01.18,0.508
2016-10-01 00:49:00,1583E-3,5C000000,-0724,0828,12472,030.7,045.5,0.450,741.4,01.18,0.508
2016-10-01 00:50:00,1642E-3,5C000000,-0724,0828,11994,030.7,045.5,0.450,741.5,01.18,0.508
2016-10-01 00:51:00,1646E-3,5C000000,-0724,0828,12287,030.8,045.5,0.450,741.5,01.18,0.508
2016-10-01 00:52:00,1648E-3,5C000000,-0724,0827,12263,030.7,045.5,0.450,741.4,01.18,0.508
2016-10-01 00:53:00,1689E-3,5C000000,-0724,0828,12207,030.7,045.5,0.450,741.4,01.18,0.508
2016-10-01 00:54:00,1552E-3,5C000000,-0724,0828,12238,030.8,045.6,0.450,741.4,01.18,0.508
2016-10-01 00:55:00,1692E-3,5C000000,-0724,0829,12161,030.7,045.6,0.450,741.4,01.18,0.508
2016-10-01 00:56:00,1618E-3,5C000000,-0724,0828,12174,030.7,045.5,0.449,741.3,01.18,0.508
2016-10-01 00:57:00,1665E-3,5C000000,-0724,0827,12155,030.7,045.5,0.449,741.3,01.18,0.508
2016-10-01 00:58:00,1686E-3,5C000000,-0724,0828,12240,030.7,045.5,0.449,741.3,01.18,0.508
2016-10-01 00:59:00,1674E-3,5C000000,-0724,0827,12142,030.7,045.5,0.449,741.3,01.18,0.508
2016-10-01 01:00:00,1730E-3,5C000000,-0724,0828,12237,030.7,045.5,0.449,741.3,01.18,0.508
2016-10-01 01:01:00,1739E-3,5C000000,-0724,0828,12251,030.7,045.5,0.450,741.3,01.18,0.508
2016-10-01 01:02:00,1652E-3,5C000000,-0724,0828,12119,030.7,045.5,0.450,741.3,01.18,0.508
2016-10-01 01:03:00,1670E-3,5C000000,-0724,0828,12199,030.7,045.5,0.450,741.3,01.18,0.508
2016-10-01 01:04:00,1648E-3,5C000000,-0724,0827,12045,030.7,045.6,0.450,741.3,01.18,0.508
2016-10-01 01:05:00,1686E-3,5C000000,-0724,0828,12085,030.7,045.6,0.450,741.3,01.18,0.508
2016-10-01 01:06:00,1695E-3,5C000000,-0724,0828,12251,030.7,045.6,0.450,741.3,01.18,0.508
2016-10-01 01:07:00,1712E-3,5C000000,-0724,0828,12199,030.7,045.6,0.449,741.3,01.18,0.508
2016-10-01 01:08:00,1644E-3,5C000000,-0724,0828,12083,030.7,045.5,0.449,741.3,01.18,0.508
2016-10-01 01:09:00,1577E-3,5C000000,-0724,0830,12120,030.8,045.5,0.449,741.3,01.18,0.508
2016-10-01 01:10:00,1602E-3,5C000000,-0724,0827,12299,030.8,045.5,0.449,741.2,01.18,0.508
2016-10-01 01:11:00,1687E-3,5C000000,-0724,0827,12177,030.8,045.5,0.449,741.3,01.18,0.508
2016-10-01 01:12:00,1620E-3,5C000000,-0724,0829,11210,030.8,045.5,0.449,741.3,01.18,0.508
2016-10-01 01:13:00,1752E-3,5C000000,-0724,0828,12262,030.8,045.5,0.449,741.2,01.18,0.508
2016-10-01 01:14:00,1720E-3,5C000000,-0724,0828,12362,030.8,045.5,0.450,741.2,01.18,0.508
2016-10-01 01:15:00,1580E-3,5C000000,-0724,0828,12218,030.8,045.6,0.450,741.3,01.18,0.508
2016-10-01 01:16:00,1660E-3,5C000000,-0724,0827,12208,030.8,045.6,0.450,741.2,01.18,0.508
2016-10-01 01:17:00,1723E-3,5C000000,-0724,0827,12224,030.8,045.5,0.450,741.3,01.18,0.508
2016-10-01 01:18:00,1700E-3,5C000000,-0724,0828,12259,030.8,045.5,0.450,741.2,01.18,0.508
2016-10-01 01:19:00,1723E-3,5C000000,-0724,0828,12294,030.8,045.5,0.450,741.2,01.18,0.508
2016-10-01 01:20:00,1676E-3,5C000000,-0724,0829,12273,030.8,045.5,0.450,741.2,01.18,0.508
2016-10-01 01:21:00,1690E-3,5C000000,-0724,0827,12078,030.8,045.5,0.450,741.2,01.18,0.508
2016-10-01 01:22:00,1700E-3,5C000000,-0724,0828,12121,030.8,045.5,0.449,741.2,01.18,0.508
2016-10-01 01:23:00,1638E-3,5C000000,-0724,0828,12165,030.8,045.5,0.449,741.2,01.18,0.508
2016-10-01 01:24:00,1708E-3,5C000000,-0724,0827,12091,030.8,045.5,0.449,741.2,01.18,0.508
2016-10-01 01:25:00,1507E-3,5C000000,-0724,0829,12247,030.8,045.6,0.449,741.2,01.18,0.508
2016-10-01 01:26:00,1684E-3,5C000000,-0724,0828,12178,030.8,045.5,0.449,741.2,01.18,0.508
2016-10-01 01:27:00,1580E-3,5C000000,-0724,0828,12153,030.8,045.5,0.449,741.1,01.18,0.508
2016-10-01 01:28:00,1616E-3,5C000000,-0724,0829,12121,030.8,045.5,0.449,741.1,01.18,0.508
2016-10-01 01:29:00,1705E-3,5C000000,-0724,0828,12153,030.8,045.6,0.449,741.2,01.18,0.508
2016-10-01 01:30:00,1757E-3,5C000000,-0724,0828,12149,030.8,045.5,0.450,741.2,01.18,0.508
2016-10-01 01:31:00,1680E-3,5C000000,-0724,0829,12186,030.8,045.6,0.450,741.2,01.18,0.508
2016-10-01 01:32:00,1646E-3,5C000000,-0724,0828,12247,030.8,045.6,0.449,741.1,01.18,0.508
2016-10-01 01:33:00,1544E-3,5C000000,-0724,0829,12220,030.8,045.5,0.449,741.2,01.18,0.508
2016-10-01 01:34:00,1753E-3,5C000000,-0724,0829,12252,030.8,045.5,0.449,741.2,01.18,0.508
2016-10-01 01:35:00,1591E-3,5C000000,-0724,0828,12279,030.8,045.5,0.449,741.1,01.18,0.508
2016-10-01 01:36:00,1695E-3,5C000000,-0724,0829,12253,030.8,045.6,0.449,741.2,01.18,0.508
2016-10-01 01:37:00,1732E-3,5C000000,-0724,0827,12185,030.8,045.5,0.449,741.2,01.18,0.508
2016-10-01 01:38:00,1701E-3,5C000000,-0724,0828,12175,030.8,045.5,0.449,741.1,01.18,0.508
2016-10-01 01:39:00,1555E-3,5C000000,-0724,0829,12059,030.8,045.5,0.449,741.2,01.18,0.508
2016-10-01 01:40:00,1670E-3,5C000000,-0724,0829,12335,030.8,045.5,0.449,741.1,01.18,0.508
2016-10-01 01:41:00,1723E-3,5C000000,-0724,0829,12210,030.8,045.5,0.449,741.2,01.18,0.508
2016-10-01 01:42:00,1739E-3,5C000000,-0724,0829,12143,030.8,045.5,0.450,741.1,01.18,0.508
2016-10-01 01:43:00,1812E-3,5C000000,-0724,0828,12069,030.8,045.5,0.450,741.2,01.18,0.508
2016-10-01 01:44:00,1607E-3,5C000000,-0724,0828,12136,030.8,045.5,0.450,741.2,01.18,0.508
2016-10-01 01:45:00,1473E-3,5C000000,-0724,0829,12144,030.8,045.5,0.450,741.1,01.18,0.508
2016-10-01 01:46:00,1573E-3,5C000000,-0724,0829,12159,030.8,045.5,0.450,741.2,01.18,0.508
2016-10-01 01:47:00,1589E-3,5C000000,-0724,0828,12170,030.8,045.5,0.450,741.1,01.18,0.508
2016-10-01 01:48:00,1657E-3,5C000000,-0724,0828,12159,030.8,045.6,0.449,741.1,01.18,0.508
2016-10-01 01:49:00,1648E-3,5C000000,-0724,0828,12147,030.8,045.5,0.449,741.1,01.18,0.508
2016-10-01 01:50:00,1574E-3,5C000000,-0724,0828,12331,030.9,045.6,0.449,741.1,01.18,0.508
2016-10-01 01:51:00,1539E-3,5C000000,-0724,0828,12156,030.8,045.5,0.449,741.1,01.18,0.508
2016-10-01 01:52:00,1651E-3,5C000000,-0724,0830,12212,030.8,045.6,0.449,741.1,01.18,0.508
2016-10-01 01:53:00,1714E-3,5C000000,-0724,0828,12214,030.8,045.5,0.449,741.1,01.18,0.508
2016-10-01 01:54:00,1681E-3,5C000000,-0724,0829,12139,030.8,045.5,0.449,741.1,01.18,0.508
2016-10-01 01:55:00,1660E-3,5C000000,-0724,0829,12150,030.8,045.5,0.449,741.1,01.18,0.508
2016-10-01 01:56:00,1672E-3,5C000000,-0724,0829,12253,030.9,045.6,0.449,741.1,01.18,0.508
2016-10-01 01:57:00,1503E-3,5C000000,-0724,0829,12092,030.9,045.6,0.450,741.1,01.18,0.508
2016-10-01 01:58:00,1739E-3,5C000000,-0724,0829,12290,030.9,045.6,0.450,741.1,01.18,0.508
2016-10-01 01:59:00,1624E-3,5C000000,-0724,0828,12047,030.9,045.6,0.450,741.2,01.18,0.508
2016-10-01 02:00:00,1666E-3,5C000000,-0724,0829,12388,030.8,045.6,0.450,741.0,01.18,0.508
2016-10-01 02:01:00,1662E-3,5C000000,-0724,0827,12156,030.9,045.6,0.450,741.2,01.18,0.508
2016-10-01 02:02:00,1577E-3,5C000000,-0724,0829,12236,030.9,045.5,0.449,741.1,01.18,0.508
2016-10-01 02:03:00,1741E-3,5C000000,-0724,0829,12242,030.9,045.5,0.449,741.1,01.18,0.508
2016-10-01 02:04:00,1709E-3,5C000000,-0724,0828,12220,030.9,045.5,0.449,741.0,01.18,0.508
2016-10-01 02:05:00,1608E-3,5C000000,-0724,0829,12157,030.9,045.5,0.449,741.0,01.18,0.508
2016-10-01 02:06:00,1709E-3,5C000000,-0724,0829,12178,030.9,045.5,0.449,741.1,01.18,0.508
2016-10-01 02:07:00,1685E-3,5C000000,-0724,0829,12283,030.9,045.5,0.449,741.0,01.18,0.508
2016-10-01 02:08:00,1698E-3,5C000000,-0724,0828,12127,030.9,045.5,0.449,741.0,01.18,0.508
2016-10-01 02:09:00,1653E-3,5C000000,-0724,0828,12037,030.9,045.5,0.449,740.9,01.18,0.508
2016-10-01 02:10:00,1588E-3,5C000000,-0724,0828,12271,030.9,045.6,0.449,741.0,01.18,0.508
2016-10-01 02:11:00,1556E-3,5C000000,-0724,0828,12212,030.9,045.5,0.450,741.0,01.18,0.508
2016-10-01 02:12:00,1578E-3,5C000000,-0724,0829,12156,030.9,045.6,0.450,741.0,01.18,0.508
2016-10-01 02:13:00,1676E-3,5C000000,-0724,0828,12212,030.9,045.5,0.450,741.0,01.18,0.508
2016-10-01 02:14:00,1738E-3,5C000000,-0724,0829,12193,030.9,045.5,0.450,740.9,01.18,0.508
2016-10-01 02:15:00,1653E-3,5C000000,-0724,0828,12348,030.9,045.6,0.450,741.0,01.18,0.508
2016-10-01 02:16:00,1806E-3,5C000000,-0724,0828,12120,030.9,045.6,0.450,741.0,01.18,0.508
2016-10-01 02:17:00,1686E-3,5C000000,-0724,0828,12339,030.9,045.6,0.449,741.0,01.18,0.508
2016-10-01 02:18:00,1815E-3,5C000000,-0724,0827,12242,030.9,045.6,0.449,741.0,01.18,0.508
2016-10-01 02:19:00,1579E-3,5C000000,-0724,0828,12233,030.9,045.6,0.449,741.0,01.18,0.508
2016-10-01 02:20:00,1526E-3,5C000000,-0724,0828,12217,030.9,045.5,0.449,741.0,01.18,0.508
2016-10-01 02:21:00,1642E-3,5C000000,-0724,0828,12160,030.9,045.5,0.449,740.9,01.18,0.508
2016-10-01 02:22:00,1647E-3,5C000000,-0724,0829,12219,030.9,045.5,0.449,740.9,01.18,0.508
2016-10-01 02:23:00,1709E-3,5C000000,-0724,0829,12138,030.9,045.5,0.449,740.9,01.18,0.508
2016-10-01 02:24:00,1649E-3,5C000000,-0724,0828,12285,030.9,045.6,0.449,740.9,01.18,0.508
2016-10-01 02:25:00,1697E-3,5C000000,-0724,0828,12243,030.9,045.6,0.449,740.9,01.18,0.508
2016-10-01 02:26:00,1742E-3,5C000000,-0724,0828,12127,030.9,045.5,0.449,741.0,01.18,0.508
2016-10-01 02:27:00,1708E-3,5C000000,-0724,0828,12212,030.9,045.6,0.450,741.0,01.18,0.508
2016-10-01 02:28:00,1755E-3,5C000000,-0724,0827,12260,030.9,045.6,0.450,741.0,01.18,0.508
2016-10-01 02:29:00,1630E-3,5C000000,-0724,0828,12190,030.9,045.5,0.450,741.0,01.18,0.508
2016-10-01 02:30:00,1632E-3,5C000000,-0724,0828,12251,030.9,045.5,0.449,741.0,01.18,0.508
2016-10-01 02:31:00,1612E-3,5C000000,-0724,0828,12289,030.9,045.5,0.450,740.9,01.18,0.508
2016-10-01 02:32:00,1672E-3,5C000000,-0724,0828,12164,030.9,045.6,0.449,740.7,01.18,0.508
2016-10-01 02:33:00,1781E-3,5C000000,-0724,0829,11244,030.9,045.6,0.449,740.9,01.18,0.508
2016-10-01 02:34:00,1678E-3,5C000000,-0724,0828,12291,030.9,045.6,0.449,741.0,01.18,0.508
2016-10-01 02:35:00,1813E-3,5C000000,-0724,0828,12197,030.9,045.5,0.449,740.9,01.18,0.508
2016-10-01 02:36:00,1634E-3,5C000000,-0724,0829,12320,030.9,045.5,0.449,740.9,01.18,0.508
2016-10-01 02:37:00,1789E-3,5C000000,-0724,0828,12310,030.9,045.5,0.449,740.9,01.18,0.508
2016-10-01 02:38:00,1890E-3,5C000000,-0724,0827,12205,030.9,045.5,0.449,740.9,01.18,0.508
2016-10-01 02:39:00,1712E-3,5C000000,-0724,0828,12090,030.9,045.6,0.449,740.9,01.18,0.508
2016-10-01 02:40:00,1551E-3,5C000000,-0724,0829,12237,030.9,045.6,0.449,740.9,01.18,0.508
2016-10-01 02:41:00,1707E-3,5C000000,-0724,0828,12223,030.9,045.5,0.449,740.9,01.18,0.508
2016-10-01 02:42:00,1696E-3,5C000000,-0724,0828,11953,030.9,045.5,0.449,740.7,01.18,0.508
2016-10-01 02:43:00,1571E-3,5C000000,-0724,0827,12172,030.9,045.5,0.450,740.8,01.18,0.508
2016-10-01 02:44:00,1715E-3,5C000000,-0724,0828,12230,030.9,045.5,0.449,740.9,01.18,0.508
2016-10-01 02:45:00,1783E-3,5C000000,-0724,0828,12042,030.9,045.5,0.450,741.0,01.18,0.508
2016-10-01 02:46:00,1689E-3,5C000000,-0724,0827,12300,030.9,045.6,0.450,740.8,01.18,0.508
2016-10-01 02:47:00,1692E-3,5C000000,-0724,0828,12145,030.9,045.6,0.449,740.9,01.18,0.508
2016-10-01 02:48:00,1753E-3,5C000000,-0724,0827,12125,030.9,045.5,0.449,740.7,01.18,0.508
2016-10-01 02:49:00,1638E-3,5C000000,-0724,0827,12265,030.9,045.6,0.449,740.9,01.18,0.508
2016-10-01 02:50:00,1775E-3,5C000000,-0724,0829,12241,030.9,045.6,0.449,740.8,01.18,0.508
2016-10-01 02:51:00,1671E-3,5C000000,-0724,0828,12323,030.9,045.6,0.449,740.7,01.18,0.508
2016-10-01 02:52:00,1653E-3,5C000000,-0724,0828,12068,030.9,045.6,0.449,740.9,01.18,0.508
2016-10-01 02:53:00,1731E-3,5C000000,-0724,0828,12155,030.9,045.6,0.449,740.7,01.18,0.508
2016-10-01 02:54:00,1678E-3,5C000000,-0724,0828,12129,030.9,045.6,0.449,740.8,01.18,0.508
2016-10-01 02:55:00,1704E-3,5C000000,-0724,0828,12156,030.9,045.5,0.449,740.9,01.18,0.508
2016-10-01 02:56:00,1604E-3,5C000000,-0724,0829,12271,030.9,045.5,0.449,740.6,01.18,0.508
2016-10-01 02:57:00,1688E-3,5C000000,-0724,0829,12377,030.9,045.5,0.449,740.8,01.18,0.508
2016-10-01 02:58:00,1714E-3,5C000000,-0724,0828,12165,030.9,045.5,0.449,740.8,01.18,0.508
2016-10-01 02:59:00,1800E-3,5C000000,-0724,0827,12187,030.9,045.5,0.449,740.7,01.18,0.508
2016-10-01 03:00:00,1710E-3,5C000000,-0724,0827,12177,030.9,045.5,0.449,740.7,01.18,0.508
2016-10-01 03:01:00,1654E-3,5C000000,-0724,0829,12159,030.9,045.6,0.449,740.8,01.18,0.508
2016-10-01 03:02:00,1648E-3,5C000000,-0724,0828,12386,030.9,045.6,0.449,740.6,01.18,0.508
2016-10-01 03:03:00,1814E-3,5C000000,-0724,0828,12223,030.9,045.5,0.449,740.6,01.18,0.508
2016-10-01 03:04:00,1695E-3,5C000000,-0724,0828,12255,030.9,045.5,0.449,740.6,01.18,0.508
2016-10-01 03:05:00,1634E-3,5C000000,-0724,0828,12225,030.9,045.6,0.449,740.6,01.18,0.508
2016-10-01 03:06:00,1709E-3,5C000000,-0724,0828,12180,030.9,045.6,0.450,740.6,01.18,0.508
2016-10-01 03:07:00,1791E-3,5C000000,-0724,0828,12220,030.9,045.6,0.449,740.6,01.18,0.508
2016-10-01 03:08:00,1846E-3,5C000000,-0724,0828,12328,030.9,045.6,0.449,740.6,01.18,0.508
2016-10-01 03:09:00,1696E-3,5C000000,-0724,0828,12144,030.9,045.6,0.449,740.6,01.18,0.508
2016-10-01 03:10:00,1616E-3,5C000000,-0724,0828,12251,030.9,045.5,0.449,740.6,01.18,0.508
2016-10-01 03:11:00,1737E-3,5C000000,-0724,0827,12212,030.9,045.5,0.449,740.6,01.18,0.508
2016-10-01 03:12:00,1741E-3,5C000000,-0724,0828,12131,030.9,045.5,0.449,740.6,01.18,0.508
2016-10-01 03:13:00,1853E-3,5C000000,-0724,0828,12098,030.9,045.6,0.449,740.7,01.18,0.508
2016-10-01 03:14:00,1664E-3,5C000000,-0724,0828,12338,030.9,045.6,0.449,740.6,01.18,0.508
2016-10-01 03:15:00,1641E-3,5C000000,-0724,0828,12291,030.9,045.5,0.449,740.6,01.18,0.508
2016-10-01 03:16:00,1632E-3,5C000000,-0724,0829,12312,030.9,045.5,0.449,740.6,01.18,0.508
2016-10-01 03:17:00,1609E-3,5C000000,-0724,0829,12182,030.9,045.6,0.449,740.6,01.18,0.508
2016-10-01 03:18:00,1615E-3,5C000000,-0724,0828,12194,030.9,045.6,0.448,740.6,01.18,0.508
2016-10-01 03:19:00,1785E-3,5C000000,-0724,0828,12227,030.9,045.6,0.449,740.6,01.18,0.508
2016-10-01 03:20:00,1647E-3,5C000000,-0724,0828,12161,030.9,045.5,0.449,740.6,01.18,0.508
2016-10-01 03:21:00,1707E-3,5C000000,-0724,0828,12181,030.9,045.6,0.449,740.6,01.18,0.508
2016-10-01 03:22:00,1758E-3,5C000000,-0724,0828,12225,030.9,045.6,0.449,740.8,01.18,0.508
2016-10-01 03:23:00,1515E-3,5C000000,-0724,0827,12237,030.9,045.5,0.449,740.6,01.18,0.508
2016-10-01 03:24:00,1557E-3,5C000000,-0724,0828,12335,030.9,045.6,0.449,740.6,01.18,0.508
2016-10-01 03:25:00,1592E-3,5C000000,-0724,0828,12212,030.9,045.5,0.449,740.6,01.18,0.508
2016-10-01 03:26:00,1622E-3,5C000000,-0724,0828,12210,030.9,045.5,0.450,740.7,01.18,0.508
2016-10-01 03:27:00,1707E-3,5C000000,-0724,0828,12263,030.9,045.5,0.449,740.8,01.18,0.508
2016-10-01 03:28:00,1741E-3,5C000000,-0724,0828,12089,030.9,045.5,0.449,740.6,01.18,0.508
2016-10-01 03:29:00,1671E-3,5C000000,-0724,0827,12231,030.9,045.6,0.449,740.8,01.18,0.508
2016-10-01 03:30:00,1721E-3,5C000000,-0724,0828,12165,030.9,045.6,0.449,740.7,01.18,0.508
2016-10-01 03:31:00,1644E-3,5C000000,-0724,0828,12278,030.9,045.5,0.449,740.8,01.18,0.508
2016-10-01 03:32:00,1592E-3,5C000000,-0724,0828,12345,030.9,045.5,0.449,740.8,01.18,0.508
2016-10-01 03:33:00,1681E-3,5C000000,-0724,0828,12120,030.9,045.6,0.449,740.9,01.18,0.508
2016-10-01 03:34:00,1730E-3,5C000000,-0724,0828,12134,030.9,045.5,0.449,740.6,01.18,0.508
2016-10-01 03:35:00,1635E-3,5C000000,-0724,0828,12240,030.9,045.5,0.449,740.9,01.18,0.508
2016-10-01 03:36:00,1621E-3,5C000000,-0724,0828,12095,030.9,045.5,0.449,740.7,01.18,0.508
2016-10-01 03:37:00,1682E-3,5C000000,-0724,0829,12213,030.9,045.6,0.449,740.7,01.18,0.508
2016-10-01 03:38:00,1671E-3,5C000000,-0724,0828,12193,030.9,045.6,0.449,740.7,01.18,0.508
2016-10-01 03:39:00,1800E-3,5C000000,-0724,0828,12133,031.0,045.6,0.449,740.9,01.18,0.508
2016-10-01 03:40:00,1721E-3,5C000000,-0724,0829,12134,030.9,045.6,0.449,740.9,01.18,0.508
2016-10-01 03:41:00,1576E-3,5C000000,-0724,0829,12168,030.9,045.6,0.449,740.7,01.18,0.508
2016-10-01 03:42:00,1756E-3,5C000000,-0724,0828,12197,031.0,045.5,0.450,740.8,01.18,0.508
2016-10-01 03:43:00,1606E-3,5C000000,-0724,0829,12212,030.9,045.6,0.449,741.0,01.18,0.508
2016-10-01 03:44:00,1708E-3,5C000000,-0724,0828,12251,030.9,045.6,0.450,740.9,01.18,0.508
2016-10-01 03:45:00,1588E-3,5C000000,-0724,0828,12042,030.9,045.6,0.449,740.9,01.18,0.508
2016-10-01 03:46:00,1618E-3,5C000000,-0724,0829,12075,030.9,045.5,0.449,740.9,01.18,0.508
2016-10-01 03:47:00,1700E-3,5C000000,-0724,0828,12323,030.9,045.6,0.449,740.6,01.18,0.508
2016-10-01 03:48:00,1703E-3,5C000000,-0724,0828,12216,030.9,045.5,0.449,740.6,01.18,0.508
2016-10-01 03:49:00,1644E-3,5C000000,-0724,0828,12172,030.9,045.5,0.449,740.7,01.18,0.508
2016-10-01 03:50:00,1640E-3,5C000000,-0724,0827,12163,030.9,045.6,0.449,740.7,01.18,0.508
2016-10-01 03:51:00,1703E-3,5C000000,-0724,0827,12045,030.9,045.6,0.449,740.8,01.18,0.508
2016-10-01 03:52:00,1737E-3,5C000000,-0724,0828,12263,030.9,045.5,0.449,740.9,01.18,0.508
2016-10-01 03:53:00,1649E-3,5C000000,-0724,0827,12335,030.9,045.5,0.449,740.9,01.18,0.508
2016-10-01 03:54:00,1615E-3,5C000000,-0724,0829,12251,030.9,045.5,0.449,740.9,01.18,0.508
2016-10-01 03:55:00,1611E-3,5C000000,-0724,0829,12204,030.9,045.6,0.449,740.8,01.18,0.508
2016-10-01 03:56:00,1756E-3,5C000000,-0724,0828,12355,030.9,045.6,0.449,740.7,01.18,0.508
2016-10-01 03:57:00,1760E-3,5C000000,-0724,0829,12242,030.9,045.6,0.449,740.8,01.18,0.508
2016-10-01 03:58:00,1646E-3,5C000000,-0724,0828,12149,031.0,045.5,0.449,740.9,01.18,0.508
2016-10-01 03:59:00,1605E-3,5C000000,-0724,0829,12394,031.0,045.6,0.449,740.6,01.18,0.508
2016-10-01 04:00:00,1707E-3,5C000000,-0724,0828,12250,030.9,045.6,0.450,740.6,01.18,0.508
2016-10-01 04:01:00,1819E-3,5C000000,-0724,0829,12198,030.9,045.6,0.449,740.8,01.18,0.508
2016-10-01 04:02:00,1705E-3,5C000000,-0724,0828,12117,031.0,045.6,0.449,740.8,01.18,0.508
2016-10-01 04:03:00,1637E-3,5C000000,-0724,0828,12169,031.0,045.5,0.449,740.6,01.18,0.508
2016-10-01 04:04:00,1690E-3,5C000000,-0724,0829,12133,030.9,045.6,0.449,740.7,01.18,0.508
2016-10-01 04:05:00,1741E-3,5C000000,-0724,0829,12263,030.9,045.6,0.449,740.6,01.18,0.508
2016-10-01 04:06:00,1623E-3,5C000000,-0724,0828,12114,031.0,045.5,0.449,740.7,01.18,0.508
2016-10-01 04:07:00,1616E-3,5C000000,-0724,0827,12136,030.9,045.5,0.449,740.6,01.18,0.508
2016-10-01 04:08:00,1862E-3,5C000000,-0724,0829,12135,030.9,045.6,0.449,740.6,01.18,0.508
2016-10-01 04:09:00,1706E-3,5C000000,-0724,0828,12240,031.0,045.6,0.449,740.8,01.18,0.508
2016-10-01 04:10:00,1732E-3,5C000000,-0724,0828,12132,031.0,045.5,0.449,740.7,01.18,0.508
2016-10-01 04:11:00,1590E-3,5C000000,-0724,0828,12178,031.0,045.5,0.449,740.7,01.18,0.508
2016-10-01 04:12:00,1704E-3,5C000000,-0724,0828,12134,031.0,045.6,0.449,740.9,01.18,0.508
2016-10-01 04:13:00,1757E-3,5C000000,-0724,0828,12325,031.0,045.6,0.448,740.6,01.18,0.508
2016-10-01 04:14:00,1608E-3,5C000000,-0724,0828,12276,031.0,045.5,0.449,740.7,01.18,0.508
2016-10-01 04:15:00,1672E-3,5C000000,-0724,0826,12171,031.0,045.6,0.449,740.6,01.18,0.508
2016-10-01 04:16:00,1609E-3,5C000000,-0724,0827,12163,030.9,045.6,0.449,740.6,01.18,0.508
2016-10-01 04:17:00,1810E-3,5C000000,-0724,0828,12255,031.0,045.6,0.449,740.6,01.18,0.508
2016-10-01 04:18:00,1581E-3,5C000000,-0724,0828,12254,031.0,045.6,0.449,740.7,01.18,0.508
2016-10-01 04:19:00,1727E-3,5C000000,-0724,0828,12089,031.0,045.6,0.449,740.6,01.18,0.508
2016-10-01 04:20:00,1648E-3,5C000000,-0724,0828,12218,031.0,045.6,0.449,740.6,01.18,0.508